Weather History for Benton Harbor, MI

Change the Weather History Date:

Tuesday, April 29, 2014

  Actual Average Record
Temperature  
Mean Temperature 58 °F -  
Max Temperature 70 °F 61 °F 82 °F (1970)
Min Temperature 46 °F 41 °F 27 °F (1979)
Degree Days  
Heating Degree Days 7    
Growing Degree Days 8 (Base 50)    
Moisture  
Dew Point 48 °F    
Average Humidity 83    
Maximum Humidity 100    
Minimum Humidity 39    
Precipitation  
Precipitation 0.21 in - - ()
Sea Level Pressure  
Sea Level Pressure 29.55 in    
Wind  
Wind Speed 12 mph (SE)    
Max Wind Speed 22 mph    
Max Gust Speed 37 mph    
Visibility 7 miles    
Events Rain , Thunderstorm    
Averages and records for this station are not official NWS values.
T = Trace of Precipitation, MM = Missing Value Source: NWS Daily Summary

Daily Weather History Graph

Daily Weather History Graph

Search for Another Location

Airport:

Trip Planner

Search our weather history database for the weather conditions in past years. The results will help you decide how hot, cold, wet, or windy it might be!

Date:

Astronomy

Apr. 29, 2014 Rise Set
Actual Time 6:44 AM EDT 8:42 PM EDT
Civil Twilight 6:13 AM EDT 9:13 PM EDT
Nautical Twilight 5:36 AM EDT 9:50 PM EDT
Astronomical Twilight 4:56 AM EDT 10:30 PM EDT
Moon 7:02 AM EDT (4/29) 9:22 PM EDT (4/29)
Length of Visible Light 14h 59m
Length of Day
13h 58m
New Moon, 0% of the Moon is Illuminated
Apr 29
New Moon
May 6
First Quarter
May 14
Full
May 21
Last Quarter
May 28
New

Hourly Weather History & Observations

Time (EDT) Temp. Dew Point Humidity Pressure Visibility Wind Dir Wind Speed Gust Speed Precip Events Conditions
12:06 AM 46.9 °F 45.0 °F 93% 29.62 in 2.5 mi East 20.7 mph 26.5 mph 0.07 in Rain Light Rain
12:14 AM 48.0 °F 45.0 °F 89% 29.63 in 8.0 mi East 17.3 mph 26.5 mph 0.07 in Rain Light Rain
12:42 AM 48.0 °F 45.0 °F 89% 29.60 in 9.0 mi East 17.3 mph 27.6 mph 0.08 in   Overcast
12:53 AM 48.0 °F 45.0 °F 89% 29.61 in 9.0 mi East 16.1 mph 27.6 mph 0.08 in   Overcast
1:53 AM 48.9 °F 46.0 °F 90% 29.57 in 7.0 mi East 16.1 mph 24.2 mph N/A   Overcast
2:53 AM 48.9 °F 46.9 °F 93% 29.56 in 6.0 mi ESE 11.5 mph - N/A   Overcast
3:36 AM 48.9 °F 46.9 °F 93% 29.55 in 6.0 mi East 9.2 mph - 0.00 in Rain Light Rain
3:53 AM 48.9 °F 48.0 °F 97% 29.54 in 4.0 mi East 11.5 mph - 0.01 in Rain Light Rain
4:28 AM 48.0 °F 48.0 °F 100% 29.52 in 5.0 mi ESE 9.2 mph - 0.02 in   Overcast
4:41 AM 48.0 °F 48.0 °F 100% 29.52 in 5.0 mi ESE 9.2 mph - 0.02 in Rain Light Rain
4:53 AM 48.0 °F 48.0 °F 100% 29.52 in 5.0 mi SE 8.1 mph - 0.02 in   Overcast
5:12 AM 48.9 °F 48.0 °F 97% 29.53 in 2.5 mi SSE 8.1 mph - 0.00 in Rain Light Rain
5:20 AM 48.9 °F 48.0 °F 97% 29.53 in 4.0 mi ESE 6.9 mph - 0.00 in   Overcast
5:53 AM 48.9 °F 48.0 °F 97% 29.49 in 6.0 mi East 8.1 mph - 0.00 in Rain Light Rain
6:29 AM 48.9 °F 48.9 °F 100% 29.49 in 6.0 mi Variable 3.5 mph - 0.01 in   Overcast
6:53 AM 48.9 °F 48.9 °F 100% 29.51 in 6.0 mi SE 5.8 mph - 0.01 in   Overcast
7:53 AM 50.0 °F 50.0 °F 100% 29.51 in 3.0 mi SSE 4.6 mph - N/A   Overcast
8:10 AM 50.0 °F 50.0 °F 100% 29.51 in 2.5 mi SSE 6.9 mph - N/A   Overcast
8:27 AM 50.0 °F 50.0 °F 100% 29.51 in 1.5 mi SSE 6.9 mph - N/A   Overcast
8:51 AM 51.8 °F 51.8 °F 100% 29.52 in 1.2 mi SE 8.1 mph - N/A   Overcast
9:10 AM 51.1 °F 51.1 °F 100% 29.52 in 1.5 mi SSE 6.9 mph - N/A   Overcast
9:24 AM 52.0 °F 52.0 °F 100% 29.51 in 2.0 mi SE 8.1 mph - N/A   Overcast
9:40 AM 53.1 °F 53.1 °F 100% 29.51 in 3.0 mi SE 6.9 mph - N/A   Overcast
9:53 AM 54.0 °F 53.1 °F 97% 29.52 in 4.0 mi SE 8.1 mph - N/A   Overcast
10:09 AM 55.0 °F 54.0 °F 96% 29.51 in 6.0 mi South 5.8 mph - N/A   Mostly Cloudy
10:20 AM 55.9 °F 54.0 °F 93% 29.52 in 7.0 mi SSE 6.9 mph - N/A   Scattered Clouds
10:53 AM 60.1 °F 55.0 °F 83% 29.53 in 10.0 mi South 6.9 mph - N/A   Clear
11:53 AM 64.0 °F 54.0 °F 70% 29.53 in 10.0 mi SE 10.4 mph - N/A   Clear
12:53 PM 66.9 °F 46.9 °F 49% 29.52 in 10.0 mi SSE 9.2 mph 20.7 mph N/A   Scattered Clouds
1:21 PM 69.1 °F 46.9 °F 45% 29.51 in 10.0 mi SSE 12.7 mph 20.7 mph N/A Thunderstorm Mostly Cloudy
1:36 PM 70.0 °F 45.0 °F 41% 29.50 in 10.0 mi South 17.3 mph 25.3 mph N/A   Partly Cloudy
1:53 PM 69.1 °F 44.1 °F 40% 29.50 in 10.0 mi SSE 13.8 mph 26.5 mph N/A   Scattered Clouds
2:53 PM 66.0 °F 43.0 °F 43% 29.49 in 10.0 mi South 18.4 mph 29.9 mph 0.00 in Rain Light Rain
3:02 PM 66.9 °F 41.0 °F 39% 29.49 in 10.0 mi South 12.7 mph 29.9 mph 0.00 in Thunderstorm Overcast
3:14 PM 66.9 °F 43.0 °F 42% 29.50 in 10.0 mi SSW 9.2 mph - 0.00 in Thunderstorm Thunderstorm
3:39 PM 66.0 °F 50.0 °F 56% 29.52 in 10.0 mi SW 13.8 mph - 0.01 in Thunderstorm Mostly Cloudy
3:50 PM 64.4 °F 48.2 °F 56% 29.54 in 10.0 mi West 21.9 mph 36.8 mph 0.01 in   Scattered Clouds
3:53 PM 63.0 °F 48.0 °F 58% 29.54 in 10.0 mi WSW 19.6 mph 36.8 mph 0.01 in   Scattered Clouds
4:53 PM 57.0 °F 46.0 °F 67% 29.58 in 10.0 mi West 21.9 mph - N/A   Clear
6:53 PM 55.0 °F 45.0 °F 69% 29.64 in 10.0 mi West 5.8 mph - N/A   Scattered Clouds
7:53 PM 55.0 °F 44.1 °F 67% 29.66 in 10.0 mi West 8.1 mph - N/A   Mostly Cloudy
8:53 PM 51.1 °F 51.1 °F 100% 29.69 in 10.0 mi NNE 3.5 mph - 0.02 in   Overcast
9:06 PM 51.1 °F 51.1 °F 100% 29.69 in 1.8 mi Variable 3.5 mph - 0.05 in Rain Heavy Rain
9:12 PM 51.1 °F 51.1 °F 100% 29.68 in 3.0 mi NNE 3.5 mph - 0.06 in Rain Light Rain
9:53 PM 50.0 °F 48.9 °F 96% 29.69 in 8.0 mi North 3.5 mph - 0.06 in   Clear
11:53 PM 48.0 °F 46.9 °F 96% 29.68 in 10.0 mi ENE 4.6 mph - N/A   Clear